Regional Weather Roundup
Issued by NWS

Home | Current Version | Previous Version | Graphics & Text | Print | Product List | Glossary Off
Versions: 1 2 3 4 5 6 7 8 9 10 11 12 13 14 15 16 17 18 19 20 21 22 23 24 25 26 27 28 29 30 31 32 33 34 35 36 37 38 39 40 41 42 43 44 45 46 47 48 49 50

000
ASUS43 KDMX 251407
RWRIA

WEATHER ROUNDUP FOR IOWA
NATIONAL WEATHER SERVICE DES MOINES IA
900 AM CDT SAT APR 25 2015

NOTE: "FAIR" INDICATES FEW OR NO CLOUDS BELOW 12,000 FEET WITH NO
SIGNIFICANT WEATHER AND/OR OBSTRUCTIONS TO VISIBILITY.

* - THESE STATIONS ARE NOT NWS STATIONS...THUS NOT UNDER NWS
QUALITY CONTROL.  THEY ALSO DO NOT REPORT WEATHER SUCH
AS PRECIPITATION OR FOG.

IAZ001>003-012>014-020>022-031>034-043>046-251500-
   NORTHWEST IOWA

CITY           SKY/WX    TMP DP  RH WIND       PRES   REMARKS
CARROLL *      LGT RAIN  43  43 100 NE20      29.62S
CHEROKEE *     CLOUDY    43  43 100 NE15G22   29.67F FOG
DENISON *      LGT RAIN  43  43 100 NE23G32   29.58S
LE MARS *      CLOUDY    46  41  81 NE15G26   29.69R
ORANGE CITY *  CLOUDY    43  37  81 E16G23    29.69R FOG
SHELDON *      CLOUDY    45  41  87 E21       29.70R
SIOUX CITY     CLOUDY    46  42  86 NE20G25   29.63S FOG
SPENCER        CLOUDY    44  38  79 E17       29.72R
STORM LAKE *   CLOUDY    43  41  93 NE20G29   29.67R FOG
$$

IAZ055>058-069>071-079>083-090>094-251500-
   SOUTHWEST IOWA

CITY           SKY/WX    TMP DP  RH WIND       PRES   REMARKS
ATLANTIC *     CLOUDY    46  46 100 E20G25    29.57R
AUDUBON *      RAIN      45  41  87 E17G23    29.60R
CLARINDA *     CLOUDY    54  54 100 E14       29.52R
COUNCIL BLFS * CLOUDY    48  48 100 NE15G24   29.55R FOG
CRESTON *      FOG       46  46 100 E20G25    29.54R VSB 1
HARLAN  *      LGT RAIN  46  46 100 E12G21    29.62R
LAMONI         CLOUDY    52  49  89 E13G23    29.51S FOG
RED OAK *      CLOUDY    50  50 100 NE16G23   29.53R FOG
SHENANDOAH *   CLOUDY    54  54 100 E17G24    29.51R
$$

IAZ047>049-059>061-072>074-084-251500-
   CENTRAL IOWA

CITY           SKY/WX    TMP DP  RH WIND       PRES   REMARKS
AMES           LGT RAIN  43  40  89 E15       29.65R FOG
ANKENY *       LGT RAIN  43  43 100 NE16G22   29.61F
CHARITON *     CLOUDY    45  45 100 E17G23    29.56R FOG
DES MOINES     LGT RAIN  45  42  89 E22G32    29.58F FOG
GRINNELL*      RAIN      43  41  93 NE15G21   29.64S
KNOXVILLE *    LGT RAIN  45  43  93 NE22G33   29.53F
MARSHALLTOWN   CLOUDY    43  39  86 E16       29.66R
PELLA *        DRIZZLE   43  43 100 NE10G24   29.60F
PERRY *        LGT RAIN  43  43 100 E18G28    29.60S
$$

IAZ004>006-015-016-023>025-035-036-251500-
   NORTH CENTRAL IOWA

CITY           SKY/WX    TMP DP  RH WIND       PRES   REMARKS
ALGONA *       CLOUDY    43  39  87 E16G22    29.73R
CLARION *      CLOUDY    43  41  93 E17       29.71R
ESTHERVILLE    CLOUDY    42  37  82 E17       29.74R
FORT DODGE *   CLOUDY    43  37  81 E21       29.68S
MASON CITY     CLOUDY    42  37  82 E17       29.74R
FOREST CITY *  CLOUDY    41  36  81 E13G21    29.74R
IOWA FALLS *   CLOUDY    43  37  81 E18G24    29.70R
$$

IAZ007>011-017>019-026>030-037>042-050>054-066-251500-
   NORTHEAST IOWA

CITY           SKY/WX    TMP DP  RH WIND       PRES   REMARKS
CEDAR RAPIDS   RAIN      42  41  96 E18G26    29.66S FOG
CHARLES CITY * CLOUDY    43  39  87 E21       29.75R
CLINTON *      CLOUDY    45  39  81 E18       29.72S
DECORAH *      CLOUDY    43  36  75 E16G22    29.77R
DUBUQUE        CLOUDY    42  36  79 NE12      29.74F
MONTICELLO *   CLOUDY    43  43 100 E16       29.70F FOG
OELWEIN *      CLOUDY    43  37  81 E22G29    29.71F
WATERLOO       CLOUDY    44  38  79 E18       29.70F
$$

IAZ064-065-067-068-078-251500-
   EAST CENTRAL IOWA

CITY           SKY/WX    TMP DP  RH WIND       PRES   REMARKS
DAVENPORT      CLOUDY    44  41  89 E23       29.67F FOG
IOWA CITY      LGT RAIN  44  42  93 NE14G24   29.66R FOG
MT. PLEASANT * LGT RAIN  45  45 100 E8        29.64S
MUSCATINE *    LGT RAIN  46  43  87 NE14G21   29.64S
QUAD CITIES    LGT RAIN  44  41  89 E21       29.65F FOG
$$

IAZ062-063-075>077-085>089-095>099-251500-
   SOUTHEAST IOWA

CITY           SKY/WX    TMP DP  RH WIND       PRES   REMARKS
BURLINGTON     HVY RAIN  47  47 100 E8        29.64R FOG
FAIRFIELD *    RAIN      45  43  93 NE18      29.59F
FORT MADISON * RAIN      46  46 100 E14       29.61F
KEOKUK *       RAIN      48  48 100 NE20      29.55F
OSKALOOSA *    MIX PCPN  43  41  93 NE29      29.55F
CENTERVILLE *  CLOUDY    46  46 100 NE16G24   29.55R
OTTUMWA        LGT RAIN  44  43  96 E24G31    29.55F FOG
WASHINGTON *   MIX PCPN  45  45 100 E14       29.65R
$$

ABBREVIATIONS USED IN REMARKS
   TC - TEMPERATURES IN CELSIUS
  WCI - WIND CHILL INDEX
   HX - HEAT INDEX
  VSB - VISIBILITY
$$




USA.gov is the U.S. government's official web portal to all federal, state and local government web resources and services.